Home > Weather > Bandar-Abbas > Past weeks

Flag for Iran Past Weather in Bandar-Abbas, Iran — Yesterday and Last 2 Weeks

Now
100 °F

Sandstorm.


Feels Like: 127 °F
Forecast: 78 / 108 °F
Wind: 16 mph from Southwest

Location: Bandarabbass

Current Time: Jul 1, 2016 at 2:29:46 PM

Latest Report: Jul 1, 2016 at 2:00 PM


Visibility: 2 mi

Pressure: 29.39 "Hg

Humidity: 57%

Dew Point: 82 °F

Location of Bandar-AbbasLocation

Past Weather in Bandar-Abbas — Graph

°F

Bandar-Abbas Temperature Yesterday

Maximum temperature yesterday: 102 °F (at 4:00 PM)
Minimum temperature yesterday: 88 °F (at 6:30 AM)
Average temperature yesterday: 95 °F

High & Low Weather Summary for the Past Weeks

 TemperatureHumidityPressure
High115 °F (Jun 22, 11:00 AM)89% (Jun 19, 5:30 AM)29.65 "Hg (Jun 19, 5:30 AM)
Low81 °F (Jun 17, 5:30 AM)9% (Jun 22, 11:00 AM)29.33 "Hg (Jun 27, 5:00 PM)
Average95 °F57%29.49 "Hg
* Reported Jun 16 1:30 PM — Jul 1 1:30 PM, Bandar-Abbas, Weather by CustomWeather, © 2016

Note: Actual official high and low records may vary slightly from our data, if they occured in-between our weather recording intervals... More about our weather records

Advertising

Bandar-Abbas Weather History for the Previous 24 Hours

Scroll right to see more
 ConditionsComfort  
Time TempWeatherWind HumidityBarometerVisibility
1:30 PM
Fri, Jul 1
100 °FSandstorm.16 mph57%29.42 "Hg2 mi
1:00 PM99 °FSandstorm.18 mph60%29.42 "Hg2 mi
12:30 PM99 °FHaze.14 mph57%29.42 "Hg3 mi
12:00 PM99 °FHaze.12 mph60%29.42 "Hg2 mi
11:30 AM99 °FHaze.12 mph50%29.42 "Hg2 mi
11:00 AM99 °FHaze.12 mph47%29.45 "Hg2 mi
10:30 AM100 °FHaze.5 mph47%29.45 "Hg2 mi
10:00 AM100 °FHaze.5 mph47%29.45 "Hg2 mi
9:30 AM99 °FHaze.5 mph50%29.45 "Hg2 mi
9:00 AM99 °FHaze.5 mph53%29.45 "Hg2 mi
8:30 AM97 °FHaze.5 mph56%29.45 "Hg2 mi
8:00 AM95 °FHaze.5 mph60%29.45 "Hg2 mi
7:30 AM93 °FHaze.No wind63%29.42 "Hg2 mi
7:00 AM88 °FHaze.No wind75%29.42 "Hg2 mi
6:30 AM86 °FHaze.No wind79%29.42 "Hg2 mi
5:30 AM86 °FHaze.5 mph79%29.42 "Hg2 mi
4:30 AM88 °FHaze.5 mph75%29.42 "Hg2 mi
3:30 AM88 °FHaze.7 mph79%29.42 "Hg2 mi
2:30 AM88 °FHaze.5 mph79%29.42 "Hg2 mi
2:00 AM88 °FHaze.5 mph79%29.42 "Hg2 mi
1:30 AM90 °FHaze.5 mph75%29.45 "Hg2 mi
1:00 AM90 °FHaze.5 mph75%29.45 "Hg3 mi
12:30 AM91 °FHaze.5 mph71%29.45 "Hg2 mi
12:00 AM91 °FHaze.5 mph71%29.47 "Hg3 mi
11:30 PM
Thu, Jun 30
91 °FHaze.5 mph75%29.45 "Hg3 mi
11:00 PM91 °FHaze.5 mph75%29.45 "Hg3 mi
10:30 PM91 °FHaze.7 mph75%29.45 "Hg3 mi
10:00 PM91 °FHaze.7 mph75%29.45 "Hg3 mi
9:30 PM93 °FHaze.7 mph71%29.45 "Hg3 mi
9:00 PM93 °FHaze.9 mph71%29.45 "Hg3 mi
8:30 PM93 °FHaze.14 mph75%29.42 "Hg3 mi
8:00 PM93 °FHaze.12 mph71%29.42 "Hg3 mi
7:30 PM95 °FClear.12 mph67%29.42 "Hg4 mi
7:00 PM99 °FClear.12 mph57%29.42 "Hg4 mi
6:30 PM100 °FClear.12 mph50%29.42 "Hg4 mi
6:00 PM102 °FClear.12 mph42%29.42 "Hg5 mi
5:30 PM102 °FClear.12 mph42%29.42 "Hg5 mi
5:00 PM100 °FClear.9 mph53%29.42 "Hg5 mi
4:30 PM100 °FClear.9 mph53%29.42 "Hg5 mi
4:00 PM102 °FClear.7 mph54%29.42 "Hg5 mi
3:30 PM100 °FClear.9 mph53%29.42 "Hg5 mi
3:00 PM100 °FClear.9 mph57%29.45 "Hg5 mi
2:30 PM100 °FClear.14 mph57%29.45 "Hg5 mi
2:00 PM100 °FClear.9 mph57%29.47 "Hg5 mi
Weather by CustomWeather, © 2016

See weather overviewHow to use our weather pages